This is the latest recevied weather packets stored in our database for station/object KB9HUO. If no packets are shown the sender has not sent any weather packets the latest 10 day(s).
| Time | Temp. | Humidity | Pressure | Rain* | Wind** | Luminosity | Snow |
|---|---|---|---|---|---|---|---|
| 1778179224 | 16.67° C | 36% | 1016.1 hPa | 0 mm | - | 452 W/m² | - |
| 1778178919 | 17.22° C | 35% | 1016.3 hPa | 0 mm | - | 70 W/m² | - |
| 1778178617 | 17.22° C | 39% | 1016 hPa | 0 mm | - | 360 W/m² | - |
| 1778178313 | 16.67° C | 39% | 1016 hPa | 0 mm | - | 237 W/m² | - |
| 1778178009 | 16.67° C | 36% | 1016.3 hPa | 0 mm | - | 662 W/m² | - |
| 1778177706 | 16.11° C | 37% | 1016.4 hPa | 0 mm | - | 808 W/m² | - |
| 1778177402 | 16.11° C | 35% | 1016.4 hPa | 0 mm | - | 809 W/m² | - |
| 1778177099 | 16.11° C | 34% | 1016.7 hPa | 0 mm | - | 814 W/m² | - |
| 1778176795 | 16.11° C | 36% | 1016.5 hPa | 0 mm | - | 820 W/m² | - |
| 1778176492 | 16.11° C | 36% | 1016.5 hPa | 0 mm | - | 822 W/m² | - |
| 1778176189 | 16.67° C | 37% | 1016.5 hPa | 0 mm | - | 827 W/m² | - |
| 1778175886 | 16.67° C | 39% | 1016.7 hPa | 0 mm | - | 830 W/m² | - |
| 1778175584 | 16.11° C | 41% | 1016.8 hPa | 0 mm | - | 832 W/m² | - |
| 1778175281 | 16.11° C | 36% | 1016.9 hPa | 0 mm | - | 834 W/m² | - |
| 1778174978 | 16.67° C | 37% | 1017.2 hPa | 0 mm | - | 834 W/m² | - |
| 1778174674 | 16.11° C | 33% | 1017.1 hPa | 0 mm | - | 833 W/m² | - |
| 1778174370 | 16.67° C | 35% | 1017.1 hPa | 0 mm | - | 831 W/m² | - |
| 1778174067 | 16.11° C | 37% | 1016.9 hPa | 0 mm | - | 829 W/m² | - |
| 1778173764 | 16.11° C | 41% | 1017.4 hPa | 0 mm | - | 831 W/m² | - |
| 1778173460 | 15.56° C | 40% | 1017.4 hPa | 0 mm | - | 831 W/m² | - |
| 1778173157 | 15° C | 37% | 1017.4 hPa | 0 mm | - | 823 W/m² | - |
| 1778172853 | 15° C | 41% | 1017.4 hPa | 0 mm | - | 824 W/m² | - |
| 1778172548 | 15° C | 38% | 1017.6 hPa | 0 mm | - | 824 W/m² | - |
| 1778172246 | 15.56° C | 38% | 1017.4 hPa | 0 mm | - | 823 W/m² | - |
| 1778171943 | 16.11° C | 40% | 1017.6 hPa | 0 mm | - | 812 W/m² | - |
* Rain latest hour (hover to see other rain measurements)
** Current wind speed in m/s (hover to see current wind gust speed)